Location: *
(42.5628°N, 2.3633°E)
Time: 09:05:09
(UTC+00:00)

NOSS 3-4 (C) - Pass Details

Date: 30 March 2020
Orbit: 894 x 1319 km, 63.4° (Epoch: 01 June)

Event Time Altitude Azimuth Distance (km) Brightness Sun altitude
Rises 21:21:04 0° 325° (NW) 3,828 7.7 -31.7°
Reaches altitude 10° 21:23:38 10° 328° (NNW) 2,930 6.8 -32.1°
Enters shadow 21:30:16 65° 34° (NE) 1,265 3.9 -32.9°
